W4GHW Weather Reports


Display with metric or nautical units.
time (UTC)temp
F
wind
direction
speed
MPH
gust
MPH
rain 1hr
in
rain 24hr
in
rain mn
in
humidity
%
barometer
mb
20260502210003 67 13 2.0 8.0 0.00 1.35 1.18 64 1013.2
20260502205004 67 24 2.0 8.0 0.00 1.35 1.18 66 1013.2
20260502204003 67 336 3.0 7.0 0.00 1.35 1.18 69 1013.2
20260502203004 66 4 2.0 8.0 0.00 1.35 1.18 71 1013.2
20260502202003 65 304 5.0 8.0 0.00 1.35 1.18 69 1013.3
20260502201004 66 333 3.0 5.0 0.00 1.35 1.18 72 1013.3
20260502195004 64 348 3.0 8.0 0.00 1.35 1.18 75 1013.5
20260502194004 63 345 4.0 8.0 0.00 1.35 1.18 76 1013.6
20260502192004 63 16 3.0 8.0 0.00 1.35 1.18 79 1013.4
20260502191003 62 21 3.0 12.0 0.00 1.35 1.18 79 1013.4
20260502190005 62 8 3.0 8.0 0.00 1.35 1.18 80 1013.3
20260502185003 61 351 3.0 12.0 0.00 1.35 1.18 83 1013.2
20260502183004 60 20 2.0 9.0 0.00 1.35 1.18 86 1013.0
20260502182004 60 332 2.0 6.0 0.00 1.35 1.18 87 1013.3
20260502164004 57 355 4.0 8.0 0.02 1.36 1.18 92 1013.8
20260502163004 56 353 3.0 8.0 0.02 1.36 1.18 92 1013.8
20260502161005 56 350 3.0 6.0 0.01 1.35 1.17 92 1013.9
20260502152005 55 20 3.0 8.0 0.00 1.34 1.16 92 1012.9
20260502151004 55 30 3.0 7.0 0.01 1.34 1.16 92 1012.6
20260502123005 52 340 5.0 9.0 0.15 1.22 1.04 92 1013.6
20260502122004 53 336 3.0 6.0 0.16 1.20 1.02 91 1013.4
20260502115003 53 9 2.0 6.0 0.16 1.16 0.98 91 1013.1
20260502114004 52 47 2.0 6.0 0.13 1.12 0.94 91 1013.1
20260502113004 52 0 2.0 6.0 0.10 1.07 0.89 91 1013.1
20260502111004 52 331 4.0 12.0 0.09 1.02 0.84 91 1012.6
20260502110005 52 349 1.0 3.0 0.08 1.01 0.83 91 1012.6
20260502105004 52 5 1.0 6.0 0.08 1.00 0.82 91 1012.4
20260502104004 52 5 1.0 7.0 0.09 0.99 0.81 91 1012.1
20260502103004 52 24 2.0 6.0 0.08 0.97 0.79 91 1012.0
20260502101004 52 16 1.0 3.0 0.06 0.93 0.75 91 1012.2
20260502091004 54 16 3.0 7.0 0.06 0.87 0.69 91 1011.7
20260502071005 55 2 2.0 8.0 0.18 0.72 0.54 91 1012.8
20260502070004 55 355 3.0 10.0 0.21 0.71 0.53 90 1012.7
20260502064004 56 357 4.0 12.0 0.20 0.65 0.47 90 1013.3
20260502063004 58 358 3.0 8.0 0.19 0.61 0.43 91 1013.5
20260502062005 58 35 2.0 8.0 0.19 0.57 0.39 91 1013.6
20260502061005 58 356 3.0 8.0 0.20 0.54 0.36 91 1013.5
20260502060005 58 345 3.0 8.0 0.19 0.50 0.32 91 1013.5
20260502055005 58 32 1.0 5.0 0.18 0.47 0.29 91 1013.2
20260502054004 58 358 2.0 6.0 0.19 0.45 0.27 91 1013.2
20260502053004 58 334 2.0 5.0 0.18 0.42 0.24 91 1013.9
20260502052004 59 345 2.0 3.0 0.16 0.38 0.20 91 1014.2
20260502051004 59 309 2.0 3.0 0.13 0.34 0.16 91 1014.3
20260502050004 59 314 2.0 8.0 0.13 0.31 0.13 91 1014.1
20260502045004 59 347 3.0 8.0 0.14 0.29 0.11 90 1014.0
20260502043004 59 356 3.0 5.0 0.09 0.24 0.06 91 1013.8
20260502042004 59 271 1.0 2.0 0.08 0.22 0.04 91 1014.1
20260502041004 59 327 2.0 3.0 0.07 0.21 0.03 90 1013.8
20260502040004 59 269 1.0 3.0 0.04 0.18 0.00 90 1014.4
20260502035004 59 291 2.0 3.0 0.01 0.15 0.15 90 1014.6
20260502034004 59 332 1.0 3.0 0.03 0.15 0.15 90 1014.0
20260502032005 59 333 1.0 5.0 0.07 0.14 0.14 90 1014.3
20260502031005 59 308 1.0 3.0 0.09 0.14 0.14 89 1014.3
20260502030004 59 314 2.0 3.0 0.11 0.14 0.14 89 1014.6
20260502025004 59 316 1.0 3.0 0.13 0.14 0.14 89 1014.0
20260502024004 59 284 2.0 3.0 0.11 0.12 0.12 89 1014.3
20260502023004 60 283 2.0 3.0 0.08 0.09 0.09 88 1014.4
20260502022004 60 221 1.0 3.0 0.06 0.07 0.07 88 1014.2
20260502021004 60 325 1.0 3.0 0.04 0.05 0.05 87 1013.9
20260502020004 60 291 1.0 3.0 0.02 0.03 0.03 87 1013.7
20260502015004 60 295 1.0 3.0 0.00 0.01 0.01 86 1013.7
20260502014004 60 294 1.0 2.0 0.00 0.01 0.01 85 1013.7
20260502013004 60 279 0.0 1.0 0.00 0.01 0.01 85 1013.1
20260502012004 61 333 0.0 1.0 0.00 0.01 0.01 85 1012.9
20260502011004 61 333 1.0 2.0 0.00 0.01 0.01 83 1012.9
20260502010004 61 281 1.0 2.0 0.00 0.01 0.01 82 1013.2
20260502005005 61 221 0.0 3.0 0.00 0.01 0.01 82 1013.3
20260502004004 61 340 2.0 3.0 0.00 0.01 0.01 82 1013.1
20260502002004 62 5 1.0 2.0 0.00 0.01 0.01 81 1013.7
20260502001004 62 66 0.0 2.0 0.00 0.01 0.01 80 1013.2
20260502000003 62 294 0.0 2.0 0.00 0.01 0.01 79 1013.1
20260501235003 62 294 0.0 2.0 0.00 0.01 0.01 79 1013.1
20260501234003 62 294 0.0 2.0 0.00 0.01 0.01 78 1013.3
20260501232005 63 294 0.0 0.0 0.00 0.01 0.01 75 1012.9
20260501231003 63 294 0.0 2.0 0.00 0.01 0.01 75 1012.9
20260501230003 63 294 1.0 3.0 0.00 0.01 0.01 74 1013.1
20260501225004 63 292 1.0 3.0 0.00 0.01 0.01 73 1013.3
20260501224003 64 282 2.0 3.0 0.00 0.01 0.01 73 1013.3
20260501223004 64 273 1.0 3.0 0.00 0.01 0.01 73 1012.8
20260501222004 64 300 1.0 3.0 0.00 0.01 0.01 72 1012.8
20260501220004 64 355 1.0 3.0 0.00 0.01 0.01 71 1012.8
20260501215004 64 335 3.0 5.0 0.00 0.01 0.01 69 1012.9
20260501214003 64 50 1.0 3.0 0.00 0.01 0.01 70 1013.0
20260501212004 64 30 1.0 3.0 0.00 0.01 0.01 69 1013.0
20260501211003 64 36 2.0 3.0 0.00 0.01 0.01 72 1013.0